Retour au catalogue

COSMOS 2251 DEB

ActifLEO
NORAD 35975·DEBRIS·🇷🇺 Russia

Lancé Jun 16, 1993 depuis Plesetsk Cosmodrome

Loading…

Prochains Passages (prochaines 24 heures)

TLE

PériméSource: Space-Track

Époque: Sep 7, 2026, 13:07 UTC

1 35975U 93036AVR 26250.54720127  .00001621  00000-0  61600-3 0  9999
2 35975  74.0486 203.0860 0112993 218.7913 140.5087 14.28346993679382

Suivez COSMOS 2251 DEB en temps réel avec AllMySat

Download on the App Store